Total_Precipitation_Accumulation
0.00 0.00 0.01 0.01 0.00 0.00 0.00 0.00 0.00 0.00 0.00 0.01 0.02 0.03 0.03 0.03 0.03 0.04 0.05 0.09 0.12 0.08 0.07 0.10 0.07 0.06 0.05 0.04 0.05 0.06 0.04 0.03 0.02 0.03 0.07 0.10 0.08 0.05 0.05 0.06 0.05 0.09 0.07
0.00 0.00 0.01 0.01 0.00 0.00 0.00 0.00 0.00 0.01 0.01 0.01 0.01 0.02 0.02 0.03 0.04 0.05 0.07 0.11 0.15 0.10 0.09 0.11 0.13 0.14 0.12 0.11 0.10 0.10 0.05 0.02 0.01 0.01 0.03 0.06 0.06 0.03 0.02 0.04 0.05 0.12 0.13
0.00 0.01 0.01 0.01 0.01 0.00 0.00 0.00 0.00 0.00 0.01 0.01 0.01 0.02 0.03 0.04 0.06 0.07 0.10 0.10 0.13 0.16 0.15 0.15 0.25 0.27 0.24 0.21 0.19 0.16 0.11 0.03 0.01 0.00 0.01 0.07 0.08 0.05 0.01 0.02 0.03 0.02 0.05
0.00 0.01 0.01 0.02 0.02 0.01 0.01 0.01 0.00 0.00 0.01 0.01 0.01 0.01 0.03 0.04 0.06 0.09 0.13 0.15 0.18 0.27 0.30 0.33 0.40 0.38 0.33 0.28 0.24 0.20 0.18 0.09 0.02 0.00 0.02 0.06 0.10 0.10 0.03 0.02 0.02 0.01 0.01
0.00 0.01 0.01 0.02 0.03 0.03 0.02 0.01 0.01 0.01 0.01 0.02 0.02 0.01 0.02 0.04 0.06 0.09 0.12 0.17 0.23 0.33 0.34 0.33 0.37 0.35 0.32 0.29 0.25 0.27 0.30 0.20 0.06 0.01 0.02 0.05 0.10 0.16 0.08 0.05 0.05 0.02 0.01
0.00 0.00 0.01 0.03 0.03 0.04 0.04 0.03 0.03 0.02 0.02 0.03 0.03 0.03 0.03 0.03 0.05 0.08 0.10 0.12 0.16 0.23 0.24 0.28 0.31 0.30 0.28 0.26 0.21 0.25 0.34 0.29 0.11 0.02 0.03 0.04 0.09 0.19 0.13 0.05 0.04 0.03 0.02
0.00 0.00 0.00 0.02 0.03 0.04 0.05 0.05 0.04 0.04 0.04 0.04 0.05 0.06 0.05 0.05 0.06 0.06 0.07 0.07 0.08 0.10 0.14 0.22 0.29 0.33 0.31 0.25 0.20 0.25 0.33 0.26 0.09 0.07 0.06 0.05 0.08 0.14 0.17 0.09 0.03 0.02 0.02
0.00 0.00 0.00 0.01 0.02 0.03 0.05 0.05 0.06 0.06 0.06 0.06 0.07 0.08 0.08 0.08 0.08 0.09 0.08 0.07 0.07 0.06 0.08 0.13 0.24 0.41 0.40 0.27 0.24 0.28 0.29 0.15 0.06 0.04 0.04 0.05 0.05 0.15 0.34 0.31 0.11 0.03 0.02
0.00 0.00 0.00 0.00 0.00 0.01 0.03 0.05 0.07 0.08 0.09 0.09 0.09 0.09 0.10 0.09 0.09 0.11 0.11 0.10 0.10 0.09 0.08 0.09 0.17 0.36 0.39 0.31 0.31 0.34 0.24 0.08 0.03 0.05 0.04 0.04 0.05 0.18 0.43 0.43 0.26 0.09 0.03
0.00 0.00 0.00 0.00 0.00 0.01 0.02 0.04 0.07 0.09 0.09 0.09 0.08 0.07 0.07 0.08 0.08 0.09 0.08 0.07 0.09 0.10 0.10 0.08 0.09 0.21 0.28 0.30 0.38 0.34 0.14 0.04 0.02 0.03 0.04 0.03 0.04 0.20 0.45 0.49 0.37 0.20 0.08
0.00 0.00 0.00 0.00 0.00 0.00 0.01 0.03 0.05 0.06 0.06 0.06 0.06 0.07 0.08 0.07 0.07 0.06 0.05 0.04 0.07 0.09 0.10 0.10 0.11 0.16 0.22 0.22 0.28 0.21 0.06 0.03 0.03 0.03 0.03 0.02 0.04 0.17 0.39 0.48 0.43 0.31 0.19
0.00 0.00 0.00 0.00 0.00 0.00 0.00 0.01 0.02 0.03 0.03 0.04 0.05 0.06 0.08 0.10 0.10 0.09 0.07 0.06 0.09 0.09 0.11 0.14 0.17 0.17 0.15 0.14 0.22 0.16 0.07 0.07 0.07 0.03 0.03 0.01 0.05 0.15 0.30 0.41 0.46 0.39 0.29
0.00 0.00 0.00 0.00 0.00 0.00 0.00 0.00 0.01 0.02 0.04 0.06 0.07 0.10 0.14 0.16 0.15 0.12 0.10 0.08 0.08 0.09 0.11 0.14 0.18 0.15 0.16 0.26 0.37 0.26 0.17 0.15 0.09 0.05 0.02 0.01 0.04 0.12 0.23 0.32 0.42 0.45 0.37
0.00 0.00 0.00 0.00 0.00 0.00 0.00 0.00 0.00 0.00 0.02 0.04 0.07 0.09 0.11 0.13 0.11 0.10 0.07 0.06 0.07 0.09 0.11 0.14 0.15 0.18 0.19 0.23 0.25 0.20 0.14 0.12 0.08 0.05 0.02 0.00 0.02 0.07 0.15 0.24 0.33 0.43 0.41
0.00 0.00 0.00 0.00 0.00 0.00 0.00 0.00 0.00 0.00 0.00 0.01 0.02 0.03 0.04 0.05 0.06 0.06 0.04 0.03 0.03 0.05 0.06 0.08 0.09 0.12 0.15 0.17 0.15 0.13 0.11 0.09 0.07 0.05 0.03 0.00 0.00 0.03 0.09 0.17 0.22 0.32 0.40
0.00 0.00 0.00 0.00 0.00 0.00 0.00 0.00 0.00 0.00 0.00 0.00 0.01 0.01 0.01 0.01 0.02 0.02 0.01 0.01 0.01 0.02 0.03 0.06 0.06 0.07 0.09 0.13 0.12 0.11 0.11 0.08 0.06 0.05 0.04 0.01 0.00 0.01 0.06 0.13 0.18 0.21 0.29
0.00 0.00 0.00 0.00 0.00 0.00 0.00 0.00 0.00 0.00 0.00 0.00 0.00 0.00 0.00 0.00 0.00 0.00 0.01 0.01 0.00 0.01 0.05 0.10 0.13 0.15 0.15 0.17 0.16 0.17 0.16 0.14 0.11 0.10 0.09 0.06 0.03 0.02 0.05 0.13 0.18 0.19 0.23
0.00 0.00 0.00 0.00 0.00 0.00 0.00 0.00 0.00 0.00 0.00 0.00 0.00 0.00 0.00 0.01 0.02 0.02 0.01 0.01 0.01 0.01 0.05 0.10 0.17 0.20 0.20 0.22 0.22 0.25 0.26 0.25 0.20 0.19 0.19 0.14 0.11 0.06 0.05 0.08 0.17 0.22 0.29
0.00 0.00 0.00 0.00 0.00 0.00 0.00 0.00 0.00 0.00 0.00 0.00 0.00 0.00 0.00 0.01 0.02 0.03 0.03 0.03 0.02 0.03 0.05 0.09 0.12 0.17 0.20 0.24 0.26 0.28 0.33 0.35 0.32 0.27 0.23 0.21 0.18 0.12 0.08 0.07 0.11 0.17 0.28
0.00 0.00 0.00 0.00 0.00 0.00 0.00 0.00 0.00 0.00 0.00 0.00 0.00 0.00 0.00 0.00 0.01 0.01 0.02 0.03 0.04 0.06 0.08 0.10 0.13 0.15 0.18 0.24 0.29 0.29 0.33 0.36 0.35 0.31 0.28 0.29 0.28 0.20 0.14 0.11 0.09 0.09 0.15
0.00 0.00 0.00 0.00 0.00 0.00 0.00 0.00 0.00 0.00 0.00 0.00 0.00 0.00 0.00 0.00 0.00 0.00 0.00 0.01 0.02 0.04 0.07 0.10 0.11 0.11 0.12 0.16 0.20 0.20 0.20 0.23 0.27 0.26 0.25 0.27 0.31 0.32 0.28 0.22 0.17 0.12 0.11
0.00 0.00 0.00 0.00 0.00 0.00 0.00 0.00 0.00 0.00 0.00 0.00 0.00 0.00 0.00 0.00 0.00 0.00 0.00 0.00 0.00 0.00 0.01 0.01 0.03 0.04 0.04 0.07 0.13 0.16 0.14 0.15 0.16 0.17 0.18 0.22 0.27 0.33 0.34 0.33 0.30 0.24 0.18
0.00 0.00 0.00 0.00 0.00 0.00 0.00 0.00 0.00 0.00 0.00 0.00 0.00 0.00 0.00 0.00 0.00 0.00 0.00 0.00 0.00 0.00 0.00 0.00 0.01 0.02 0.02 0.03 0.06 0.12 0.11 0.09 0.11 0.11 0.14 0.16 0.19 0.20 0.22 0.25 0.26 0.27 0.26
0.00 0.00 0.00 0.00 0.00 0.00 0.00 0.00 0.00 0.00 0.00 0.00 0.00 0.00 0.00 0.00 0.00 0.00 0.00 0.00 0.00 0.01 0.01 0.01 0.01 0.01 0.02 0.02 0.03 0.05 0.07 0.07 0.08 0.07 0.05 0.05 0.07 0.09 0.10 0.11 0.13 0.16 0.18
0.00 0.00 0.00 0.00 0.00 0.00 0.00 0.00 0.00 0.00 0.00 0.00 0.00 0.00 0.00 0.00 0.00 0.00 0.01 0.01 0.01 0.01 0.01 0.01 0.01 0.02 0.02 0.03 0.03 0.03 0.03 0.04 0.06 0.08 0.04 0.02 0.02 0.03 0.05 0.07 0.09 0.11 0.13
0.00 0.00 0.00 0.00 0.00 0.00 0.00 0.00 0.00 0.00 0.00 0.00 0.00 0.00 0.00 0.00 0.00 0.01 0.01 0.01 0.01 0.02 0.02 0.02 0.03 0.03 0.03 0.03 0.04 0.04 0.03 0.03 0.03 0.04 0.05 0.04 0.03 0.02 0.03 0.03 0.04 0.07 0.10